Weather in Centurion

South Africa     25°51′27″S   28°10′59″E
temp.,
°C
wind,
m/s
gust,
m/s
humid.,
%
clouds,
%
prec.,
mm/h
press.,
hPa
HPBL,
m
8 march, mon
mon823:00+24s25180 0.0 1014240
02:00+22se22240 0.0 101288
05:00+21nne12260 0.0 101335
08:00+21ne35570 0.0 1014369
11:00+28n33270 0.0 10121461
14:00+31w44180 0.0 10093280
17:00+30w44163 0.0 10083019
20:00+27w36182 0.0 1010381
9 march, tue
tue923:00+25wnw24270 0.0 1011225
02:00+23s01320 0.0 101124
05:00+21ne35307 0.0 1012242
08:00+23nne23344 0.0 1013372
11:00+29nnw34260 0.0 10121524
14:00+32nw55190 0.0 10093147
17:00+29wnw572588 0.0 10091804
20:00+27nw243086 0.0 1011300
10 march, wed
wed1023:00+25nne123442 0.0 101269
02:00+24nw123741 0.0 1012111
05:00+23s133354 0.0 1013145
08:00+24nne243931 0.0 1014469
11:00+30nnw25210 0.0 10122013
14:00+33wsw45130 0.0 10093058
17:00+32wsw44120 0.0 10083163
20:00+28sw47170 0.0 1011384
11 march, thu
thu1123:00+26ssw26190 0.0 1012244
02:00+24se01230 0.0 101131
05:00+22e11270 0.0 101382
08:00+24se12240 0.0 1013221
11:00+30nnw22160 0.0 10111583
14:00+33wnw33150 0.0 10093527
17:00+32w221522 0.0 10073621
20:00+29ese242061 0.0 1010406
12 march, fri
fri1223:00+27se222037 0.0 101363
02:00+23e5113937 0.0 1013657
05:00+20e5106449 0.0 1015574
08:00+22ene585824 0.1 1016626
11:00+27nne56390 0.0 10151350
14:00+30n43290 0.0 10122373
17:00+27w563936 0.3 1013682
20:00+23e225143 1.4 1017574